Weather History for Arar, Saudi Arabia

Change the Weather History Date:

Wednesday, February 13, 2013

  Actual Average Record
Temperature  
Mean Temperature 54 °F -  
Max Temperature 65 °F 66 °F 71 °F (2009)
Min Temperature 43 °F 43 °F 33 °F (1997)
Degree Days  
Heating Degree Days 11    
Growing Degree Days 4 (Base 50)    
Moisture  
Dew Point 47 °F    
Average Humidity 77    
Maximum Humidity 100    
Minimum Humidity 42    
Precipitation  
Precipitation 0.00 in - - ()
Sea Level Pressure  
Sea Level Pressure 30.16 in    
Wind  
Wind Speed 5 mph ()    
Max Wind Speed 9 mph    
Max Gust Speed -    
Visibility 6.0 miles    
Events      
Averages and records for this station are not official NWS values.
T = Trace of Precipitation, MM = Missing Value Source: Averaged Metar Reports

Daily Weather History Graph

Daily Weather History Graph

Search for Another Location

Airport:

Trip Planner

Search our weather history database for the weather conditions in past years. The results will help you decide how hot, cold, wet, or windy it might be!

Date:

Astronomy

Feb. 13, 2013 Rise Set
Actual Time 6:58 AM AST 6:01 PM AST
Civil Twilight 6:33 AM AST 6:26 PM AST
Nautical Twilight 6:05 AM AST 6:54 PM AST
Astronomical Twilight 5:36 AM AST 7:22 PM AST
Moon 8:32 AM AST (2/13) 9:22 PM AST (2/13)
Length of Visible Light 11h 52m
Length of Day
11h 03m
Waxing Crescent, 11% of the Moon is Illuminated
Feb 13
Waxing Crescent
Feb 17
First Quarter
Feb 25
Full
Mar 5
Last Quarter
Mar 11
New

Hourly Weather History & Observations

Time (AST) Temp. Windchill Dew Point Humidity Pressure Visibility Wind Dir Wind Speed Gust Speed Precip Events Conditions
12:00 AM 50 °F - 46 °F 83% 30.11 in 6 mi NNE 8.1 mph - -  
12:00 AM 50.0 °F - 46.4 °F 87% 30.09 in - NNE 8.1 mph - N/A   Clear
1:00 AM 50.0 °F - 46.4 °F 87% 30.09 in - NE 6.9 mph - N/A   Clear
2:00 AM 48.2 °F - 46.4 °F 93% 30.12 in - NNE 5.8 mph - N/A   Clear
3:00 AM 47 °F - 46 °F 97% 30.12 in 6 mi NNE 4.6 mph - -  
3:00 AM 46.4 °F 44.3 °F 46.4 °F 100% 30.12 in - NNE 4.6 mph - N/A   Clear
4:00 AM 44.6 °F 42.2 °F 44.6 °F 100% 30.12 in - North 4.6 mph - N/A   Clear
5:00 AM 44.6 °F 42.2 °F 44.6 °F 100% 30.12 in - North 4.6 mph - N/A   Clear
6:00 AM - - - % 30.15 in 6 mi North 4.6 mph - -  
6:00 AM 44.6 °F 42.2 °F 44.6 °F 100% 30.15 in - North 4.6 mph - N/A   Clear
7:00 AM 42.8 °F 41.1 °F 42.8 °F 100% 30.15 in - NNE 3.5 mph - N/A   Clear
8:00 AM 46.4 °F - 46.4 °F 100% 30.18 in - West 2.3 mph - N/A   Clear
9:00 AM 51 °F - 48 °F 87% 30.21 in 6 mi NW 1.2 mph - -  
9:00 AM 50.0 °F - 48.2 °F 94% 30.21 in - NW 1.2 mph - N/A   Clear
10:00 AM 57.2 °F - 50.0 °F 77% 30.21 in - Calm Calm - N/A   Clear
11:00 AM 60.8 °F - 50.0 °F 68% 30.21 in - SSE 1.2 mph - N/A   Clear
12:00 PM 63 °F - 48 °F 48% 30.20 in 6 mi ESE 9.2 mph - -  
12:00 PM 62.6 °F - 48.2 °F 59% 30.21 in - ESE 9.2 mph - N/A   Clear
1:00 PM 64.4 °F - 48.2 °F 56% 30.18 in - SE 5.8 mph - N/A   Clear
2:00 PM 64.4 °F - 48.2 °F 56% 30.15 in - South 2.3 mph - N/A   Clear
3:00 PM 66 °F - 48 °F 42% 30.14 in 6 mi SSE 3.5 mph - -  
3:00 PM 66.2 °F - 48.2 °F 52% 30.15 in - SSE 3.5 mph - N/A   Clear
4:00 PM 66.2 °F - 46.4 °F 49% 30.15 in - ESE 5.8 mph - N/A   Clear
5:00 PM 64.4 °F - 46.4 °F 52% 30.15 in - ENE 6.9 mph - N/A   Clear
6:00 PM 60 °F - 46 °F 50% 30.15 in 6 mi East 8.1 mph - -  
6:00 PM 60.8 °F - 46.4 °F 59% 30.15 in - East 8.1 mph - N/A   Clear
7:00 PM 57.2 °F - 46.4 °F 67% 30.15 in - East 5.8 mph - N/A   Clear
8:00 PM 55.4 °F - 48.2 °F 77% 30.18 in - ENE 6.9 mph - N/A   Clear
9:00 PM 53 °F - 48 °F 78% 30.19 in 6 mi ENE 8.1 mph - -  
9:00 PM 53.6 °F - 48.2 °F 82% 30.18 in - ENE 8.1 mph - N/A   Clear
10:00 PM 51.8 °F - 48.2 °F 88% 30.18 in - ENE 6.9 mph - N/A   Clear
11:00 PM 50.0 °F - 48.2 °F 94% 30.18 in - ENE 5.8 mph - N/A   Clear